Damascus, Syria

3:37 PM EET on December 18, 2017 (GMT +0200)
Damascus International

Weather History for OSDI - October, 2012

Change the Weather History Date:

Thursday, October 18, 2012

  Actual Average Record
Temperature  
Mean Temperature 72 °F -  
Max Temperature 90 °F 74 °F 90 °F (2012)
Min Temperature 55 °F 42 °F 39 °F (1996)
Cooling Degree Days 8    
Growing Degree Days 22 (Base 50)    
Moisture  
Dew Point 39 °F    
Average Humidity 29    
Maximum Humidity 51    
Minimum Humidity 10    
Precipitation  
Precipitation 0.00 in 0.02 in - ()
Sea Level Pressure  
Sea Level Pressure 29.97 in    
Wind  
Wind Speed 3 mph ()    
Max Wind Speed 9 mph    
Max Gust Speed -    
Visibility 12.0 miles    
Events      
Averages and records for this station are not official NWS values.
T = Trace of Precipitation, MM = Missing Value Source: Averaged Metar Reports

Daily Weather History Graph

Daily Weather History Graph

Search for Another Location

Airport or City:

Trip Planner

Search our weather history database for the weather conditions in past years. The results will help you decide how hot, cold, wet, or windy it might be!

Date:

Astronomy

Oct. 18, 2012 Rise Set
Actual Time 6:40 AM EEST 5:56 PM EEST
Civil Twilight 6:15 AM EEST 6:21 PM EEST
Nautical Twilight 5:46 AM EEST 6:50 PM EEST
Astronomical Twilight 5:18 AM EEST 7:19 PM EEST
Moon 9:49 AM EEST 8:19 PM EEST
Length of Visible Light 12h 05m
Length of Day
11h 15m
Waxing Crescent, 12% of the Moon is Illuminated
Oct 18
Waxing Crescent
Oct 22
First Quarter
Oct 29
Full
Nov 7
Last Quarter
Nov 14
New

Hourly Weather History & Observations

Time (EEST) Temp. Dew Point Humidity Pressure Visibility Wind Dir Wind Speed Gust Speed Precip Events Conditions
12:00 AM 66.2 °F 33.8 °F 30% 30.04 in - ENE 4.6 mph - N/A   Clear
1:00 AM 62.6 °F 37.4 °F 39% 30.04 in - ENE 4.6 mph - N/A   Clear
2:00 AM 64.4 °F 37.4 °F 37% 30.01 in - East 4.6 mph - N/A   Clear
3:00 AM 67 °F 40 °F 26% 29.90 in 12 mi East 8.9 mph - -  
3:00 AM 66.2 °F 41.0 °F 40% 30.01 in - East 9.2 mph - N/A   Clear
4:00 AM 60.8 °F 35.6 °F 39% 30.01 in - ENE 4.6 mph - N/A   Clear
6:00 AM 57.2 °F 39.2 °F 51% 30.01 in - Calm Calm - N/A   Clear
7:00 AM 55.4 °F 37.4 °F 51% 30.01 in - North 2.3 mph - N/A   Clear
8:00 AM 60.8 °F 41.0 °F 48% 30.01 in - East 2.3 mph - N/A   Clear
9:00 AM 71 °F 44 °F 27% 29.93 in 12 mi Calm Calm - -  
9:00 AM 71.6 °F 44.6 °F 38% 30.04 in - Calm Calm - N/A   Clear
10:00 AM 77.0 °F 39.2 °F 26% 30.04 in - SSE 4.6 mph - N/A   Clear
11:00 AM 80.6 °F 41.0 °F 24% 30.04 in - Calm Calm - N/A   Clear
12:00 PM 82.4 °F 41.0 °F 23% 30.01 in - ENE 4.6 mph - N/A   Clear
1:00 PM 86.0 °F 42.8 °F 22% 29.98 in - Calm Calm - N/A   Clear
2:00 PM 87.8 °F 42.8 °F 21% 29.95 in - Calm Calm - N/A   Clear
3:00 PM 91 °F 42 °F 10% 29.81 in 12 mi Calm Calm - -  
3:00 PM 91.4 °F 41.0 °F 17% 29.95 in - Calm Calm - N/A   Clear
4:00 PM 91.4 °F 37.4 °F 15% 29.95 in - SSW 4.6 mph - N/A   Clear
5:00 PM 89.6 °F 35.6 °F 15% 29.92 in - South 4.6 mph - N/A   Clear
6:00 PM 89.6 °F 35.6 °F 15% 29.92 in - SSE 2.3 mph - N/A   Clear
7:00 PM 80.6 °F 44.6 °F 28% 29.92 in - Calm Calm - N/A   Clear
8:00 PM 80.6 °F 37.4 °F 21% 29.98 in - Calm Calm - N/A   Clear
9:00 PM 75 °F 37 °F 16% 29.85 in 12 mi East 4.5 mph - -  
9:00 PM 75.2 °F 37.4 °F 25% 29.98 in - East 4.6 mph - N/A   Clear
10:00 PM 69.8 °F 39.2 °F 33% 29.98 in - Calm Calm - N/A   Clear
11:00 PM 69.8 °F 39.2 °F 33% 30.01 in - Calm Calm - N/A   Clear